www.pogodaiklimat.ru

Погода и климат >> Архив погоды >> Россия >> Алтайский край >> Змеиногорск


АРХИВ ПОГОДЫ в Змеиногорске

Время (UTC), дата Ветер
(напр.,м/с)
 
Видим.   Явления Облачность Т
(С)
Тd
(С)
f
(%)
Тe
(С)
Тes
(С)
Комфортность P
(гПа)
Po
(гПа)
Тmin
(С)
Tmax
(С)
R
(мм)
R24
(мм)
S
(см)
18 16.07 штиль 0 20 км 10/0
[Cs]
+11.8 +9.4 85 +11 +11 1006.6 965.0
21 16.07 СВ 1 20 км 10/0
[Cs]
+9.9 +8.1 89 +9 +9 1006.9 965.0
00 17.07 СВ 1 20 км 10/0
[Cs]
+10.9 +8.4 85 +11 +11 1007.3 965.5 +9.2
03 17.07 Ю 3 20 км 10/0
[Cs]
+22.1 +11.0 49 +24 +30 комфорт 1006.8 966.6
06 17.07 Ю 4 20 км 10/1 600 м
[Cu hum Cs]
+27.3 +8.8 31 +27 +35 жарко 1005.3 965.8
09 17.07 Ю 3 20 км 10/6 600 м
[Sc Cs]
+29.4 +9.4 29 +29 +33 жарко 1004.3 965.2
12 17.07 СВ 1 20 км гроза, ливневой дождь 10/10 600 м
[Cb cap]
+25.8 +12.0 42 +27 +27 жарко 1005.8 966.1 +29.8 0.0
15 17.07 Ю 2 20 км {гроза, ливн. осадки} 10/4 600 м
[Sc Cs]
+20.5 +12.8 61 +23 +23 комфорт 1005.0 964.6
18 17.07 ЮВ 2 10 км гроза, ливневой дождь 10/10 600 м
[Cb cap]
+17.1 +15.0 87 +17 +17 1007.0 966.1
21 17.07 штиль 0 20 км {гроза, ливн. осадки} 10/6 600 м
[Sc Cs]
+15.5 +12.8 84 +15 +15 1004.4 963.5
00 18.07 ЮВ 1 20 км {гроза, ливн. осадки} 10/3 600 м
[Sc Cs]
+14.3 +12.4 88 +15 +15 1004.9 963.7 +13.4 4
03 18.07 СЗ 1 20 км 10/0
[Cs]
+23.2 +12.2 50 +26 +34 жарко 1005.1 965.1
06 18.07 СЗ 2 20 км 10/4 600 м
[Cu med, cong Cs]
+24.8 +12.7 47 +27 +34 жарко 1005.7 965.9
09 18.07 СЗ 2 20 км 10/6 600 м
[Cu med, cong Cs]
+24.9 +11.6 43 +26 +30 жарко 1006.3 966.5
12 18.07 С 3 20 км 10/3 600 м
[Sc diur, vesp Cs]
+24.5 +12.9 48 +26 +28 жарко 1007.1 967.2 +26.0
15 18.07 Ю 1 20 км 10/0
[Cs]
+18.1 +13.6 75 +19 +19 1008.7 967.9
18 18.07 штиль 0 20 км 10/0
[Ci]
+13.5 +11.5 88 +13 +13 1009.5 968.0
21 18.07 СВ 1 20 км 10/0
[Ci]
+11.6 +10.0 90 +11 +11 1009.5 967.7
00 19.07 штиль 0 20 км 10/0
[Ci]
+11.6 +10.2 91 +11 +12 1010.1 968.3 +10.8
03 19.07 Ю 1 20 км 10/0
[Ci]
+22.4 +14.6 61 +26 +34 жарко 1008.1 968.0
06 19.07 З 2 20 км 10/3 600 м
[Cu med, cong Ci]
+25.8 +12.3 43 +27 +36 жарко 1007.3 967.6
09 19.07 З 2 20 км 10/5 600 м
[Cu med, cong Ci]
+27.0 +11.7 39 +28 +33 жарко 1005.7 966.2
12 19.07 СЗ 2 20 км 10/3 600 м
[Cu med, cong Ci]
+27.3 +9.5 33 +28 +29 жарко 1005.3 965.8 +28.5
15 19.07 штиль 0 20 км 10/0
[Cs]
+18.7 +11.7 64 +19 +19 1007.2 966.5
18 19.07 штиль 0 20 км 10/0
[Cs]
+12.8 +10.2 84 +12 +12 1008.3 966.7
21 19.07 штиль 0 20 км 10/0
[Cs]
+9.9 +8.2 89 +9 +9 1007.7 965.8
00 20.07 штиль 0 20 км 10/4 600 м
[Sc Ac trans Cs]
+10.1 +8.5 90 +9 +10 1008.3 966.3 +8.7
03 20.07 З 2 20 км 10/8 600 м
[Sc Cs]
+19.7 +12.7 64 +22 +23 комфорт 1007.0 966.5
06 20.07 З 1 20 км 10/5 600 м
[Cu med, cong Ci]
+24.7 +10.3 40 +26 +33 жарко 1006.3 966.4
09 20.07 С 1 20 км 10/8 600 м
[Cu med, cong Ci]
+24.6 +12.2 46 +26 +29 жарко 1005.9 966.1
12 20.07 СВ 3 20 км 10/3 600 м
[Cu med, cong Ci]
+25.4 +12.0 43 +27 +28 жарко 1005.6 965.9 +26.7
15 20.07 С 1 20 км 10/0
[Cs]
+19.8 +12.7 64 +23 +23 комфорт 1007.4 966.9
18 20.07 штиль 0 20 км 10/0
[Cs]
+14.4 +11.8 84 +14 +14 1007.9 966.6
21 20.07 штиль 0 20 км 10/0
[Cs]
+11.9 +10.4 91 +11 +11 1007.7 966.0
00 21.07 штиль 0 20 км 10/0
[Cs]
+11.6 +10.3 92 +11 +12 1008.2 966.5 +10.5
03 21.07 СВ 1 20 км 10/1 600 м
[Cu hum Ac cast Cc]
+23.3 +15.0 60 +27 +32 душно 1006.4 966.5
06 21.07 СЗ 2 20 км 10/8 600 м
[Cu med, cong Ci]
+25.9 +14.5 49 +28 +31 жарко 1005.6 966.0
09 21.07 СЗ 2 20 км 10/8 600 м
[Cu med, cong Ci]
+26.1 +14.3 48 +28 +30 жарко 1005.2 965.7
12 21.07 С 2 20 км 9/9 600 м
[Cb cap]
+25.1 +14.1 50 +27 +28 жарко 1005.2 965.5 +27.1
15 21.07 Ю 1 20 км гроза без осадков {ливн. осадки} 10/9 600 м
[Cb cap Cs]
+19.3 +14.3 73 +22 +22 комфорт 1006.5 966.0
18 21.07 штиль 0 20 км {гроза, ливн. осадки} 10/3 600 м
[Sc Cs]
+15.2 +13.0 87 +15 +15 1005.7 964.6
21 21.07 штиль 0 20 км 10/0
[Cs]
+14.2 +12.5 90 +14 +14 1005.3 964.1
00 22.07 штиль 0 20 км 10/6 600 м
[Sc Cs]
+14.7 +13.1 90 +14 +15 1005.1 964.0 +14.1 0.0
03 22.07 Ю 1 20 км 10/0
[Cs]
+22.2 +13.9 59 +25 +33 комфорт 1003.7 963.7
06 22.07 Ю 2 20 км 10/1 600 м
[Cu hum Cs]
+26.8 +11.8 39 +28 +39 жарко 1001.8 962.4
09 22.07 ЮЗ 1 20 км 10/4 600 м
[Cu med, cong Cs]
+28.8 +10.7 32 +29 +36 жарко 999.8 960.8
12 22.07 ЮВ 1
{13}
20 км {гроза, ливн. осадки} 10/8 600 м
[Cb cap Cs]
+20.0 +14.5 71 +23 +24 комфорт 1002.7 962.4 +29.7 1
15 22.07 Ю 2 20 км {ливн. осадки} 10/9 600 м
[Cb cap Ci]
+17.6 +14.8 84 +18 +18 1002.1 961.5
18 22.07 Ю 1 20 км 10/9
[Sc Ci]
+17.7 +14.2 80 +19 +19 1001.7 961.1
21 22.07 штиль 0 10 км слаб. ливневой дождь 10/10 600 м
[Cb cap]
+16.6 +14.8 89 +16 +16 1001.4 960.7
00 23.07 штиль 0 10 км дымка {ливн. осадки} 10/10 600 м
[Cb cap]
+16.5 +15.0 91 +16 +16 1001.6 960.9 +16.4 3
03 23.07 Ю 2 20 км {ливн. осадки} 10/10 600 м
[Sc]
+18.5 +15.3 82 +20 +20 1001.3 960.9
06 23.07 ЮЗ 2 20 км {ливн. осадки} 10/10 600 м
[Sc]
+20.6 +15.2 71 +24 +24 комфорт 1001.0 960.9
09 23.07 З 1 10 км слаб. ливневой дождь 10/10 600 м
[Cb cap]
+20.6 +15.1 71 +25 +25 комфорт 1001.9 961.8
12 23.07 ЮЗ 2 4000 м ливневой дождь 10/10 600 м
[Cb cap]
+18.6 +16.3 86 +20 +20 1003.0 962.6 +21.2 1

 

Местоположение метеостанции Змеиногорск (Алтайский край, Россия): широта 51.15 долгота 82.17 высота над уровнем моря 355 м.

В архиве по умолчанию представлена погода в Змеиногорске за последнюю неделю. Архивные данные за месяц целиком и за предыдущие месяцы, начиная с января 2011 года, Вы можете получить, выбрав интересующий диапазон дат из раскрывающегося списка и нажав кнопку "Ввод!".


*Определитесь, кто Вы:
робот инопланетянин человек

Внимание! Время в таблицах - всемирное. Для получения местного времени необходимо прибавить поправку, которая равна 7 ч.

Смотрите также архив погоды в соседних городах и на ближайших метеорологических станциях:

Погода в Горняке (Алтайский край, Россия) (52 км)
Погода в Шемонаихе (Восточно-Казахстанская область, Казахстан) (60 км)
Погода в Краснощеково (Алтайский край, Россия) (70 км)
Погода в Рубцовске (Алтайский край, Россия) (83 км)
Погода в Секисовке (Восточно-Казахстанская область, Казахстан) (96 км)
Погода в Поспелихе (Алтайский край, Россия) (97 км)
Погода в Первомайском (Восточно-Казахстанская область, Казахстан) (99 км)
Погода в Чарышском (Алтайский край, Россия) (101 км)
Погода в Дмитриевке (Восточно-Казахстанская область, Казахстан) (103 км)
Погода в Таврии (Восточно-Казахстанская область, Казахстан) (109 км)

Пояснения к столбцам:

Ветер - указаны скорость ветра в м/с - средняя за 10 мин, порывы в срок и между сроками (в фигурных скобках) и направление, откуда дует ветер: С - северный, СВ - северо-восточный, В - восточный, ЮВ - юго-восточный, Ю - южный, ЮЗ - юго-западный, З - западный, СЗ - северо-западный.
Видимость - горизонтальная дальность видимости в метрах или километрах. При видимости от 1 до 10 км при отсутствии осадков обычно наблюдается дымка, при ухудшении видимости до 1 км и менее - туман. В сухую погоду видимость может ухудшаться дымом, пылью или мглою.
Явления - указаны атмосферные явления, наблюдавшиеся в срок или в последний час перед сроком; фигурными скобками обозначены явления, наблюдавшиеся между сроками (за 1-3 часа до срока); квадратными скобками обозначены град или гололедные отложения с указанием их диаметра в мм.
Облачность - указаны через наклонную черту общая и нижняя облачность в баллах и высота нижней границы облаков в метрах; квадратными скобками обозначены формы облаков: Ci - перистые, Cs - перисто-слоистые, Cc - перисто-кучевые, Ac - высококучевые, As - высокослоистые, Sc - слоисто-кучевые, Ns - слоисто-дождевые, Cu - кучевые, Cb - кучево-дождевые. Подробнее классификацию облаков см. в Атласе облаков (PDF).
T - Температура воздуха - температура, измеренная на высоте 2 м над землей.
Td - Температура точки росы - температура, при понижении до которой содержащийся в воздухе водяной пар достигнет насыщения.
f - Относительная влажность воздуха - влажноcть воздуха, измеренная на высоте 2 м над землей.
Te - Эффективная температура - температура, которую ощущает одетый по сезону человек в тени. Характеристика душности погоды. При расчете учитывается влияние влажности воздуха и скорости ветра на теплоощущения человека.
Tes - Эффективная температура на солнце - температура, которую ощущает человек, с поправкой на солнечный нагрев. Характеристика знойности погоды. Зависит от высоты солнца над горизонтом, облачности и скорости ветра. Ночью, в пасмурную погоду, а также при ветре 12 м/с и более поправка равна нулю.
P - Атмосферное давление - приведенное к уровню моря атмосферное давление.
Po - Атмосферное давление - измеренное на уровне метеостанции атмосферное давление.
Tmin - Минимальная температура - минимум температуры воздуха на высоте 2 м над землей.
Tmax - Максимальная температура - максимум температуры воздуха на высоте 2 м над землей.
R - Количество осадков - Количество выпавших осадков за период времени, мм. При наведении курсора мыши на число - период времени, за который выпало указанное количество осадков.
R24 - Количество осадков - Количество выпавших осадков за 24 часа, мм.
S - Снежный покров - Высота снежного покрова, см. При наведении курсора мыши на число - состояние снежного покрова и степень покрытия местности в баллах.